• In Hungary
  • List of Countries
  • For 7 days
  • Water Temperature
  • Satellite Maps
  • Weather Map
  • News
  • Weather Widgets
  • user-avatar
    Login

    Hourly Weather Nepokoiha

    Today, 14 August, Tuesday

    Time Temperature Precipitation Wind Pressure Humidity
    00:00 +24°C° 0.2 mm 3 mps 747 mmHg 61%
    01:00 +22°C° 0 mm 3 mps 747 mmHg 65%
    02:00 +22°C° 0 mm 3 mps 747 mmHg 68%
    03:00 +21°C° 0 mm 3 mps 747 mmHg 74%
    04:00 +21°C° 0 mm 3 mps 747 mmHg 74%
    05:00 +21°C° 0 mm 3 mps 748 mmHg 74%
    06:00 +21°C° 0 mm 3 mps 748 mmHg 73%
    07:00 +24°C° 0 mm 3 mps 748 mmHg 66%
    08:00 +26°C° 0 mm 3 mps 748 mmHg 58%
    09:00 +27°C° 0 mm 4 mps 748 mmHg 48%
    10:00 +28°C° 0 mm 4 mps 749 mmHg 44%
    11:00 +29°C° 0 mm 5 mps 749 mmHg 39%
    12:00 +30°C° 0 mm 5 mps 749 mmHg 35%
    13:00 +29°C° 0 mm 5 mps 749 mmHg 35%
    14:00 +29°C° 0 mm 5 mps 749 mmHg 35%
    15:00 +29°C° 0 mm 5 mps 749 mmHg 35%
    16:00 +28°C° 0 mm 5 mps 749 mmHg 38%
    17:00 +28°C° 0 mm 5 mps 750 mmHg 41%
    18:00 +27°C° 0 mm 5 mps 750 mmHg 44%
    19:00 +25°C° 0 mm 4 mps 750 mmHg 49%
    20:00 +23°C° 0 mm 4 mps 751 mmHg 54%
    21:00 +21°C° 0 mm 3 mps 751 mmHg 58%
    22:00 +21°C° 0 mm 3 mps 751 mmHg 61%
    23:00 +20°C° 0 mm 3 mps 752 mmHg 64%

    Tomorrow, 15 August, Wednesday

    Time Temperature Precipitation Wind Pressure Humidity
    00:00 +19°C° 0 mm 2 mps 752 mmHg 67%
    01:00 +19°C° 0 mm 2 mps 752 mmHg 69%
    02:00 +18°C° 0 mm 2 mps 752 mmHg 72%
    03:00 +17°C° 0 mm 2 mps 752 mmHg 74%
    04:00 +18°C° 0 mm 2 mps 753 mmHg 73%
    05:00 +18°C° 0 mm 2 mps 753 mmHg 73%
    06:00 +18°C° 0 mm 2 mps 753 mmHg 72%
    07:00 +20°C° 0 mm 2 mps 753 mmHg 65%
    08:00 +21°C° 0 mm 2 mps 754 mmHg 57%
    09:00 +24°C° 0 mm 2 mps 754 mmHg 50%
    10:00 +25°C° 0 mm 2 mps 754 mmHg 44%
    11:00 +26°C° 0 mm 2 mps 754 mmHg 39%
    12:00 +27°C° 0 mm 2 mps 754 mmHg 34%
    13:00 +27°C° 0 mm 2 mps 754 mmHg 32%
    14:00 +28°C° 0 mm 2 mps 754 mmHg 30%
    15:00 +28°C° 0 mm 2 mps 754 mmHg 28%
    16:00 +28°C° 0 mm 2 mps 754 mmHg 30%
    17:00 +27°C° 0 mm 2 mps 754 mmHg 32%
    18:00 +27°C° 0 mm 1 mps 753 mmHg 33%
    19:00 +26°C° 0 mm 2 mps 754 mmHg 35%
    20:00 +24°C° 0 mm 2 mps 754 mmHg 38%
    21:00 +21°C° 0 mm 2 mps 754 mmHg 40%
    22:00 +21°C° 0 mm 2 mps 754 mmHg 40%
    23:00 +21°C° 0 mm 2 mps 754 mmHg 41%

    Day after tomorrow, 16 August, Thursday

    Time Temperature Precipitation Wind Pressure Humidity
    00:00 +20°C° 0 mm 2 mps 754 mmHg 42%
    01:00 +20°C° 0 mm 2 mps 754 mmHg 43%
    02:00 +20°C° 0 mm 2 mps 754 mmHg 44%
    03:00 +19°C° 0 mm 2 mps 754 mmHg 45%
    04:00 +20°C° 0 mm 2 mps 754 mmHg 45%
    05:00 +20°C° 0 mm 2 mps 754 mmHg 46%
    06:00 +20°C° 0 mm 2 mps 754 mmHg 47%
    07:00 +22°C° 0 mm 3 mps 754 mmHg 41%
    08:00 +26°C° 0 mm 3 mps 754 mmHg 36%
    09:00 +28°C° 0 mm 3 mps 754 mmHg 31%
    10:00 +29°C° 0 mm 3 mps 754 mmHg 29%
    11:00 +30°C° 0 mm 3 mps 754 mmHg 27%
    12:00 +31°C° 0 mm 3 mps 754 mmHg 26%
    13:00 +31°C° 0 mm 3 mps 753 mmHg 25%
    14:00 +33°C° 0 mm 3 mps 753 mmHg 25%
    15:00 +33°C° 0 mm 3 mps 753 mmHg 24%
    16:00 +32°C° 0 mm 2 mps 753 mmHg 27%
    17:00 +31°C° 0 mm 2 mps 752 mmHg 29%
    18:00 +30°C° 0 mm 1 mps 752 mmHg 32%
    19:00 +29°C° 0 mm 1 mps 752 mmHg 34%
    20:00 +27°C° 0 mm 1 mps 752 mmHg 36%
    21:00 +25°C° 0 mm 1 mps 752 mmHg 38%
    22:00 +25°C° 0 mm 1 mps 752 mmHg 39%
    23:00 +24°C° 0 mm 1 mps 752 mmHg 40%

    17 August, Friday

    Time Temperature Precipitation Wind Pressure Humidity
    00:00 +24°C° 0 mm 1 mps 752 mmHg 41%
    01:00 +24°C° 0 mm 1 mps 752 mmHg 41%
    02:00 +23°C° 0 mm 1 mps 752 mmHg 41%
    03:00 +23°C° 0 mm 1 mps 752 mmHg 42%
    04:00 +23°C° 0 mm 1 mps 752 mmHg 42%
    05:00 +24°C° 0 mm 1 mps 752 mmHg 43%
    06:00 +24°C° 0 mm 1 mps 752 mmHg 43%
    07:00 +26°C° 0 mm 2 mps 752 mmHg 39%
    08:00 +28°C° 0 mm 2 mps 752 mmHg 35%
    09:00 +30°C° 0 mm 2 mps 752 mmHg 32%
    10:00 +31°C° 0 mm 2 mps 752 mmHg 30%
    11:00 +33°C° 0 mm 3 mps 751 mmHg 29%
    12:00 +33°C° 0 mm 3 mps 751 mmHg 28%
    13:00 +33°C° 0 mm 3 mps 751 mmHg 29%
    14:00 +33°C° 0 mm 3 mps 751 mmHg 30%
    15:00 +33°C° 0 mm 4 mps 751 mmHg 31%
    16:00 +32°C° 0 mm 4 mps 751 mmHg 38%
    17:00 +29°C° 0 mm 5 mps 751 mmHg 45%
    18:00 +28°C° 0 mm 5 mps 751 mmHg 52%
    19:00 +26°C° 0.6 mm 5 mps 751 mmHg 59%
    20:00 +23°C° 0.6 mm 5 mps 751 mmHg 66%
    21:00 +22°C° 0.6 mm 5 mps 751 mmHg 72%
    22:00 +21°C° 0.3 mm 5 mps 751 mmHg 73%
    23:00 +20°C° 0.3 mm 5 mps 751 mmHg 73%

    18 August, Saturday

    Time Temperature Precipitation Wind Pressure Humidity
    00:00 +20°C° 0.3 mm 5 mps 751 mmHg 74%
    01:00 +19°C° 0 mm 5 mps 751 mmHg 74%
    02:00 +17°C° 0 mm 5 mps 752 mmHg 75%
    03:00 +17°C° 0 mm 5 mps 752 mmHg 75%
    04:00 +17°C° 0 mm 5 mps 752 mmHg 75%
    05:00 +16°C° 0 mm 5 mps 752 mmHg 75%
    06:00 +16°C° 0 mm 6 mps 752 mmHg 75%
    07:00 +19°C° 0 mm 6 mps 753 mmHg 68%
    08:00 +20°C° 0 mm 6 mps 753 mmHg 60%
    09:00 +21°C° 0 mm 7 mps 753 mmHg 53%
    10:00 +22°C° 0 mm 7 mps 753 mmHg 49%
    11:00 +23°C° 0 mm 7 mps 753 mmHg 44%
    12:00 +24°C° 0 mm 7 mps 752 mmHg 40%
    13:00 +24°C° 0 mm 7 mps 752 mmHg 39%
    14:00 +24°C° 0 mm 7 mps 752 mmHg 38%
    15:00 +24°C° 0 mm 7 mps 752 mmHg 37%
    16:00 +23°C° 0 mm 7 mps 752 mmHg 39%
    17:00 +23°C° 0 mm 6 mps 753 mmHg 41%
    18:00 +22°C° 0 mm 6 mps 753 mmHg 44%
    19:00 +20°C° 0 mm 6 mps 753 mmHg 48%
    20:00 +19°C° 0 mm 5 mps 753 mmHg 52%
    21:00 +17°C° 0 mm 5 mps 753 mmHg 56%
    22:00 +16°C° 0 mm 5 mps 754 mmHg 59%
    23:00 +16°C° 0 mm 5 mps 754 mmHg 63%

    19 August, Sunday

    Time Temperature Precipitation Wind Pressure Humidity
    00:00 +15°C° 0 mm 5 mps 754 mmHg 66%
    01:00 +15°C° 0 mm 5 mps 754 mmHg 68%
    02:00 +14°C° 0 mm 5 mps 754 mmHg 71%
    03:00 +13°C° 0 mm 5 mps 754 mmHg 73%
    04:00 +13°C° 0 mm 5 mps 754 mmHg 73%
    05:00 +13°C° 0 mm 5 mps 754 mmHg 73%
    06:00 +13°C° 0 mm 5 mps 754 mmHg 73%
    07:00 +15°C° 0 mm 6 mps 755 mmHg 65%
    08:00 +16°C° 0 mm 6 mps 755 mmHg 57%
    09:00 +17°C° 0 mm 6 mps 755 mmHg 49%
    10:00 +19°C° 0 mm 6 mps 755 mmHg 46%
    11:00 +20°C° 0 mm 6 mps 754 mmHg 43%
    12:00 +21°C° 0 mm 6 mps 754 mmHg 40%
    13:00 +21°C° 0 mm 6 mps 754 mmHg 40%
    14:00 +22°C° 0 mm 6 mps 754 mmHg 39%
    15:00 +22°C° 0 mm 6 mps 754 mmHg 39%
    16:00 +21°C° 0 mm 5 mps 754 mmHg 41%
    17:00 +21°C° 0 mm 5 mps 754 mmHg 44%
    18:00 +20°C° 0 mm 4 mps 754 mmHg 47%
    19:00 +19°C° 0 mm 4 mps 754 mmHg 51%
    20:00 +18°C° 0 mm 3 mps 754 mmHg 56%
    21:00 +17°C° 0 mm 3 mps 754 mmHg 61%
    22:00 +16°C° 0 mm 3 mps 754 mmHg 64%
    23:00 +14°C° 0 mm 3 mps 754 mmHg 67%
    Show more